RH
40 50 60 68 75 76 72 68 66 68 72 74 71 69 74 78 68 49 27 11 11 10 9 41 88 104 99 100 101 99 100 99 98 100 100 100 99 94 89 85 84 91 95 95 92 91 90 89 93 93 86 91 99 88 68 53 59 76 77 77 86 91 98 98 91 95 101 99 98 97 94 95 97 98
48 59 67 74 84 86 78 69 67 68 70 69 70 71 76 85 88 80 57 22 9 16 9 12 58 99 102 98 101 100 100 100 99 98 99 100 100 96 93 87 84 87 91 93 92 90 92 89 90 91 82 86 97 94 77 52 48 76 93 93 95 97 98 99 97 99 100 98 97 95 93 94 96 99
60 66 72 80 91 92 78 67 66 70 73 74 77 79 83 91 95 95 86 49 14 14 16 4 26 78 102 99 99 100 100 101 100 98 99 100 100 98 96 89 84 85 86 91 92 90 91 89 87 88 80 80 92 97 88 64 47 67 96 103 98 98 98 97 98 99 100 100 94 91 92 94 97 100
72 73 80 88 96 94 76 65 70 79 88 92 92 92 94 97 100 102 98 70 30 13 18 9 7 47 91 102 100 100 100 101 100 96 96 99 101 100 97 91 86 83 84 87 90 89 90 90 87 87 83 77 86 97 94 78 58 54 78 99 100 100 101 98 98 97 100 101 95 93 94 93 97 101
81 82 88 93 98 95 78 69 76 88 97 101 100 101 103 102 101 103 99 82 49 19 15 15 6 30 75 95 99 101 99 101 101 95 94 96 100 101 97 93 87 83 82 84 87 89 88 90 90 90 88 78 78 93 96 88 73 54 62 90 100 99 102 101 98 97 99 100 97 98 98 95 97 100
89 90 93 96 98 95 86 82 87 95 100 100 100 100 102 102 99 101 101 91 66 30 16 17 11 35 79 91 94 102 99 100 103 96 94 96 98 101 99 96 89 82 82 82 86 90 87 88 91 91 94 83 73 84 95 95 85 60 58 86 101 99 100 101 99 98 98 97 95 95 97 98 98 99
95 93 94 98 99 96 95 95 96 100 101 99 101 100 100 101 99 101 102 97 81 42 17 23 24 47 91 98 92 99 96 96 102 96 95 97 98 101 100 98 93 83 80 80 83 90 88 86 89 91 96 91 74 73 85 97 95 70 57 79 101 100 98 101 100 96 94 93 93 93 94 99 99 99
100 95 96 99 99 98 99 101 99 100 102 99 101 100 100 101 99 101 100 99 97 55 14 37 62 71 97 101 87 87 84 86 97 96 95 98 98 101 100 99 97 87 80 80 82 90 90 86 87 88 94 95 82 70 74 89 99 83 60 69 95 102 98 102 100 95 94 95 95 96 95 99 99 96
102 99 101 101 100 99 100 102 100 100 101 100 101 100 100 101 98 102 100 97 106 70 16 46 96 93 94 98 85 85 86 86 94 97 96 98 98 100 101 100 100 91 80 77 80 88 92 89 87 86 89 94 90 78 69 75 92 92 69 63 87 102 99 101 100 97 99 99 98 100 98 99 99 94
103 100 102 101 100 100 99 100 99 101 101 99 101 100 99 102 98 101 102 96 105 85 33 50 103 103 91 95 91 95 99 95 98 99 98 100 100 100 100 100 100 95 84 75 77 87 91 90 87 85 84 88 90 86 75 68 77 89 81 67 79 98 101 99 99 98 100 100 100 101 99 100 100 96
103 99 101 101 101 100 99 100 99 100 102 100 101 100 99 102 99 100 102 96 97 90 57 58 94 103 96 98 98 99 102 100 100 101 100 100 100 100 100 100 100 98 88 77 76 85 92 93 90 87 83 83 85 86 83 73 70 80 86 77 76 91 101 99 98 98 100 101 100 100 99 100 100 99
102 99 101 100 101 101 99 101 99 97 100 100 100 101 99 101 101 99 102 98 90 87 81 78 91 101 100 99 101 100 100 101 100 100 100 100 100 100 100 100 101 98 92 82 79 84 92 94 92 88 85 83 82 83 83 80 74 75 85 86 81 89 99 99 98 98 99 100 100 100 100 99 100 101
102 100 101 100 100 101 100 100 100 97 100 100 99 101 100 100 102 99 100 104 92 83 91 95 93 100 103 99 101 102 99 100 99 99 101 100 100 101 100 100 101 99 94 86 83 87 91 94 93 89 87 84 83 83 81 80 79 77 82 88 87 90 97 100 99 99 99 99 100 99 100 100 101 101
102 99 101 101 99 101 100 99 98 97 100 101 99 101 100 99 102 99 98 103 90 75 92 106 98 97 103 100 98 96 93 94 95 97 100 100 100 100 100 100 100 99 95 88 86 89 92 95 96 92 91 90 89 87 84 82 82 83 83 86 88 92 96 99 99 100 100 100 99 99 100 101 100 100
101 101 101 101 100 101 101 100 100 100 101 101 100 101 101 99 101 100 98 102 89 68 78 98 100 99 102 96 86 82 82 85 87 91 98 100 100 100 100 100 100 98 95 89 87 90 92 94 95 93 92 94 93 91 90 89 88 89 88 84 86 92 98 99 99 100 101 100 99 100 100 101 101 98
99 102 100 101 101 100 102 101 99 97 97 100 101 100 100 100 101 100 98 99 97 83 79 89 97 101 102 93 78 70 71 73 77 86 96 100 100 100 100 100 100 100 97 93 92 94 95 96 95 93 92 92 93 93 94 94 93 92 90 85 84 90 97 100 99 99 101 100 99 100 100 101 101 94
96 101 100 101 101 101 103 100 92 88 89 95 100 100 100 100 99 101 99 97 98 95 86 84 86 92 95 86 75 71 69 68 74 86 97 101 100 100 100 100 100 101 100 99 99 98 99 99 97 94 93 90 91 94 95 95 95 92 90 86 83 86 93 97 98 99 101 100 100 100 99 100 101 93
91 100 101 101 101 101 103 97 87 84 84 90 98 100 101 101 99 101 100 99 100 93 83 79 79 82 82 74 73 81 77 71 79 92 99 101 100 100 100 100 100 100 100 100 100 100 100 100 99 97 95 91 91 95 96 96 96 94 91 88 83 83 88 93 97 100 100 99 99 100 100 100 101 98
83 98 101 102 102 100 101 97 90 84 79 82 92 98 101 101 100 101 99 99 102 97 91 90 81 71 65 63 76 92 86 77 87 98 100 101 101 100 100 100 100 100 100 100 100 100 100 100 100 99 98 94 92 93 95 96 96 95 93 90 86 83 84 89 98 101 97 96 99 100 99 99 100 100
75 91 99 103 102 97 100 102 99 90 77 72 79 90 99 102 99 101 100 99 101 99 98 98 87 74 72 77 91 100 92 86 94 100 100 100 101 101 100 100 100 100 100 100 99 100 100 100 100 100 99 96 93 92 92 93 95 95 93 93 90 86 84 87 97 101 97 94 97 100 99 98 100 100
67 82 93 102 101 96 99 102 102 98 83 70 67 75 89 98 99 101 100 99 101 100 99 101 97 94 95 97 100 101 97 95 98 100 100 101 101 101 100 100 101 100 100 100 99 100 100 100 100 101 100 99 98 95 92 90 92 93 92 92 92 90 88 88 94 101 99 94 94 98 101 99 99 101
60 71 84 97 100 98 100 101 103 103 92 76 66 64 73 86 96 101 101 99 101 100 99 101 100 100 101 100 100 101 100 100 100 100 101 101 101 101 100 100 101 100 100 100 100 100 100 100 100 100 100 100 100 99 96 91 90 92 92 90 90 91 92 91 93 98 100 98 95 97 100 99 99 101
55 62 72 87 96 99 101 100 101 103 97 83 68 60 63 75 88 99 102 99 100 100 100 101 100 99 100 100 100 101 100 100 100 100 101 101 101 101 100 100 101 100 100 100 100 100 100 100 100 100 100 101 100 99 99 95 92 93 93 91 88 89 92 92 92 94 98 100 99 96 96 97 99 100
48 55 62 74 88 97 101 101 100 100 98 91 76 62 59 66 79 95 101 100 100 100 99 100 101 100 101 100 100 100 100 100 100 100 100 101 100 100 99 97 98 100 100 100 100 101 100 100 100 100 100 101 100 99 99 97 94 94 95 93 89 88 90 93 93 93 95 99 100 97 95 95 98 100
42 48 54 62 75 90 100 102 100 99 99 97 85 67 57 60 70 84 94 98 100 101 101 100 98 98 100 101 100 100 100 100 100 100 100 100 100 100 99 97 98 100 101 100 100 100 100 100 100 100 100 100 100 99 98 98 96 95 96 96 93 90 89 92 95 96 97 99 100 99 97 95 95 97
37 43 49 53 62 77 94 101 101 100 100 96 82 66 58 58 63 70 79 86 91 94 97 95 91 90 93 98 100 100 100 100 100 100 100 100 100 100 100 100 100 100 100 100 100 100 101 100 100 100 100 100 100 100 99 98 97 95 96 97 97 94 89 89 94 98 99 100 100 100 100 99 96 96
36 41 46 49 53 62 80 97 102 101 101 96 85 74 67 60 57 59 64 69 75 79 81 81 80 80 82 89 97 100 100 100 100 100 100 101 100 100 100 100 100 100 100 100 100 100 100 101 100 100 100 100 100 100 100 99 98 97 96 96 97 98 94 89 89 94 97 100 101 100 100 100 100 99
40 42 46 49 52 54 64 84 99 102 103 102 97 91 79 64 55 56 58 60 63 66 67 68 69 68 69 76 86 94 99 100 101 100 100 100 100 100 100 100 100 100 100 100 100 100 100 100 100 100 100 100 100 100 100 100 100 100 99 98 97 98 98 94 90 89 92 96 99 100 100 100 100 101
45 49 52 53 53 52 53 68 89 101 103 102 102 101 91 75 63 57 55 53 55 60 65 67 67 66 64 67 74 85 93 97 100 100 100 100 100 100 100 101 100 100 100 100 100 100 100 100 100 100 100 100 100 100 100 100 100 100 100 100 98 97 98 99 96 92 89 90 93 96 99 101 100 100
44 52 58 57 54 51 48 53 72 92 102 102 102 102 98 88 75 63 54 49 48 54 62 70 75 76 73 69 70 76 84 91 97 100 100 100 100 100 100 101 100 100 100 100 100 100 100 100 100 100 100 100 100 100 100 100 100 100 99 100 100 99 97 97 98 98 94 91 89 89 93 98 100 100
35 42 52 56 54 51 46 45 55 76 93 102 102 99 96 90 78 64 53 47 46 50 57 67 78 85 85 81 77 77 80 85 92 98 100 100 100 100 99 99 99 99 100 100 100 100 100 100 100 100 100 100 100 100 100 100 100 100 100 99 100 100 99 97 97 98 98 96 93 88 86 88 92 96
31 35 42 50 53 49 44 41 45 58 76 92 99 98 95 92 85 75 65 56 50 49 53 60 70 81 88 89 87 86 86 87 90 96 100 101 101 100 99 99 99 98 97 99 100 100 100 100 100 100 100 100 100 100 100 100 100 100 100 100 100 100 100 100 99 98 98 98 97 94 89 85 83 86
31 34 34 37 42 44 41 38 37 44 57 74 88 95 95 95 94 92 87 76 63 57 57 57 59 67 77 85 88 89 89 90 93 97 100 100 100 99 98 97 96 94 93 93 94 96 99 101 100 100 100 100 100 100 100 100 100 100 100 100 100 100 100 99 100 100 99 99 98 97 95 91 86 83
27 30 30 28 30 35 38 37 34 35 40 52 69 83 91 94 93 93 93 88 79 72 68 63 58 57 61 71 80 84 85 86 89 92 94 95 94 92 91 89 89 88 87 86 85 86 90 95 98 101 101 100 100 100 100 100 100 100 101 100 100 100 100 100 100 100 100 100 99 98 98 96 93 88
25 25 26 26 25 27 32 35 35 34 34 38 47 59 72 84 91 92 92 90 87 84 80 75 69 62 56 56 62 69 74 78 80 82 83 84 83 83 83 82 81 80 80 80 80 79 79 82 87 93 98 100 99 99 99 100 100 100 100 100 100 100 100 100 100 100 100 100 100 100 100 99 97 94
26 23 22 24 25 25 26 29 33 34 34 34 35 40 49 62 75 84 88 89 90 90 87 84 80 74 65 57 52 52 56 62 67 71 72 73 74 75 75 74 74 73 72 71 72 73 74 74 75 78 85 93 98 100 100 100 100 101 100 100 100 100 100 100 100 100 100 100 100 100 100 98 97 97
30 26 22 21 23 24 24 25 27 30 33 33 33 33 36 42 52 62 72 81 88 91 90 89 87 83 77 70 61 53 48 48 51 54 57 60 63 66 66 67 66 66 65 64 63 64 65 67 69 70 72 78 89 98 101 99 98 99 100 100 100 100 100 101 100 100 100 100 100 100 100 100 99 99
32 30 27 23 21 22 23 24 25 26 28 30 32 32 33 34 37 41 48 59 71 81 86 90 91 89 86 81 75 67 58 50 46 45 44 45 48 51 54 55 56 56 57 57 56 56 56 57 60 63 65 68 75 85 94 97 98 99 99 100 100 100 100 101 100 100 100 100 100 100 100 100 100 100
30 30 30 29 26 23 22 22 23 23 24 25 27 29 30 31 32 33 35 39 49 60 69 78 85 88 89 87 83 78 71 63 57 50 45 41 39 40 41 42 43 45 46 46 46 47 47 48 49 51 55 59 63 68 76 87 96 99 99 97 97 97 99 100 101 100 100 100 100 101 100 99 100 100
29 28 28 29 30 29 26 24 22 22 22 22 23 24 25 27 28 29 30 31 34 39 46 55 66 76 83 88 88 84 80 74 69 62 55 48 41 37 36 35 35 35 35 35 37 37 38 39 40 41 45 49 53 57 62 70 82 93 98 98 96 96 99 101 101 100 101 101 100 100 100 100 100 100
33 31 30 28 28 29 29 29 27 25 23 22 22 21 21 23 23 24 26 27 28 29 32 35 42 52 64 75 83 87 87 85 81 75 70 62 54 46 40 37 37 36 33 30 31 34 37 38 37 42 50 51 48 49 53 58 69 84 96 100 100 98 99 101 101 100 100 101 100 100 100 100 100 100
35 35 34 33 32 30 29 29 29 29 28 26 25 23 22 21 21 21 22 23 24 26 26 27 29 34 41 51 62 73 84 90 91 88 84 79 72 65 57 49 47 47 45 40 37 37 42 45 45 52 67 72 64 56 55 56 61 72 85 95 100 101 100 100 100 101 100 100 100 100 100 100 101 100
34 35 35 35 36 35 35 34 32 31 31 30 28 27 25 24 22 21 21 21 21 22 23 24 25 25 28 32 39 48 62 75 83 87 90 90 87 83 78 71 66 63 63 64 60 54 53 57 59 65 81 92 89 81 73 65 61 66 79 90 96 100 101 100 100 101 101 100 100 100 100 100 100 100
31 32 32 32 32 33 34 36 36 35 35 35 33 32 30 28 26 23 21 20 19 19 19 20 21 22 23 24 26 30 38 47 57 69 81 89 92 92 90 88 84 78 75 77 80 77 70 64 66 77 91 99 99 98 94 85 76 76 85 94 97 98 100 101 100 100 101 101 100 100 101 100 100 100
26 26 26 27 27 27 28 29 30 31 33 34 34 35 35 34 33 31 28 26 23 21 20 18 18 18 19 20 22 23 25 28 34 43 56 70 83 91 93 93 93 90 85 82 86 92 87 76 73 86 100 102 99 99 100 98 95 92 92 97 100 100 100 100 98 98 99 100 101 101 101 101 100 100
Wind_Speed
41 40 39 37 36 36 35 32 30 29 30 32 32 33 34 36 40 43 45 45 43 41 43 51 54 48 43 40 38 39 40 40 41 41 43 47 51 52 54 55 55 55 54 54 54 55 56 57 56 55 57 59 58 58 59 60 55 53 55 54 52 54 56 58 59 59 61 64 67 66 65 61 54 51
40 39 38 36 34 33 31 27 24 24 25 27 28 30 31 32 35 40 43 44 43 39 40 47 53 51 44 39 37 38 39 39 39 39 41 45 49 51 53 54 55 54 54 53 53 54 56 57 56 56 57 59 59 59 59 60 57 55 54 52 50 50 54 60 62 62 63 64 62 60 62 62 56 52
39 40 39 37 34 30 26 21 20 21 23 26 27 29 30 32 34 36 39 43 42 38 38 43 50 53 47 40 38 38 38 38 38 38 39 42 46 50 52 53 55 54 53 52 52 54 55 57 57 56 57 60 60 59 60 61 60 58 56 54 51 49 50 54 56 57 62 64 61 57 57 60 60 56
40 40 40 38 34 27 22 20 21 23 26 28 30 32 32 33 33 32 35 40 42 37 36 38 45 53 51 43 38 38 37 36 37 37 38 40 44 49 51 52 53 54 52 51 52 53 54 56 58 57 57 60 62 61 60 62 62 61 59 57 55 51 51 52 50 49 54 60 61 57 53 55 58 56
40 41 40 38 33 25 21 22 23 25 27 27 28 29 29 30 30 31 32 36 39 37 34 34 41 50 52 47 41 37 35 34 35 36 38 39 42 46 50 51 52 52 51 50 51 52 54 55 57 58 57 59 63 63 62 63 64 64 61 60 59 56 52 51 48 45 47 54 59 58 54 53 55 56
40 40 39 36 31 23 21 23 23 24 25 24 25 25 26 28 28 29 32 34 37 35 31 32 39 46 48 48 45 39 35 33 33 35 37 38 40 44 48 50 50 51 49 49 50 51 53 55 56 58 58 58 61 64 64 64 65 67 64 60 59 59 55 51 48 44 46 51 56 57 57 55 57 59
39 39 38 34 28 22 20 21 21 23 23 22 23 23 24 27 26 28 31 32 34 32 26 28 36 42 43 46 46 42 38 34 32 33 35 37 39 42 47 50 50 50 49 48 49 50 52 53 54 56 58 58 59 62 65 65 66 69 69 62 55 54 55 54 50 45 46 51 55 58 59 58 58 61
38 38 36 33 27 21 19 19 20 21 21 19 20 21 22 25 25 26 30 30 31 28 23 28 32 37 40 42 42 40 38 35 33 33 34 36 38 40 45 49 49 49 48 48 48 49 50 51 52 53 57 59 59 60 63 65 66 68 71 68 56 49 51 53 51 49 50 54 57 59 61 61 60 61
36 35 34 31 26 21 19 19 19 20 19 17 18 20 21 22 23 24 26 28 26 22 21 31 33 33 36 37 35 34 35 35 34 33 33 35 38 39 42 47 48 48 48 48 48 48 48 49 51 52 54 58 60 59 61 63 65 67 71 72 62 51 49 52 53 54 55 55 56 58 61 62 62 62
34 33 32 29 25 21 18 19 19 19 18 15 15 19 20 20 21 23 23 25 23 18 20 31 34 32 33 35 32 29 31 33 34 33 33 34 36 38 40 44 47 47 47 47 47 47 47 47 49 51 53 57 60 61 61 62 63 65 69 73 69 57 52 55 57 58 58 56 55 56 58 61 64 64
32 32 31 28 24 20 18 18 18 18 18 16 14 15 16 16 18 20 20 22 22 19 22 30 32 29 28 29 26 24 27 31 31 30 31 33 34 36 39 42 45 46 46 46 46 45 45 45 46 49 52 55 58 61 62 62 63 64 66 72 74 66 57 58 61 61 59 58 58 58 58 60 64 66
32 32 31 27 23 19 18 17 17 16 17 18 16 12 11 12 14 16 16 19 21 22 24 29 30 27 23 21 20 23 27 29 29 27 27 30 32 34 37 41 43 44 45 45 44 44 45 45 46 47 50 53 56 59 62 63 64 65 65 67 73 73 65 59 60 60 58 57 57 58 59 61 63 66
31 32 31 28 24 20 19 17 16 16 17 19 19 14 8 7 10 12 14 17 22 25 26 27 28 27 22 21 24 27 27 26 25 24 23 27 30 32 35 39 42 43 43 43 43 43 43 44 45 46 47 50 53 56 60 62 64 66 65 64 67 72 72 66 61 60 56 55 56 57 59 62 63 63
31 31 30 29 26 22 20 18 16 16 16 18 18 15 10 6 6 11 14 15 20 28 28 25 26 27 24 24 28 30 29 27 25 23 22 25 28 30 33 38 41 41 41 41 41 42 42 42 43 44 45 47 50 53 56 60 62 64 64 63 62 66 70 68 65 63 56 51 54 58 61 63 62 60
31 32 31 30 27 22 18 15 14 14 15 16 16 14 10 7 6 7 14 16 17 25 31 27 25 26 25 25 29 31 31 30 27 24 22 23 27 28 30 35 40 40 40 40 40 40 41 42 43 43 43 44 46 49 52 55 58 59 60 61 62 64 67 64 63 64 57 48 50 57 62 65 61 57
32 33 33 31 27 21 16 12 11 11 12 13 15 13 8 6 8 6 8 18 19 23 29 29 27 26 26 25 27 29 32 32 30 28 24 23 26 27 27 32 37 38 39 39 38 38 39 40 41 41 41 42 43 44 47 50 53 55 58 60 61 65 68 64 61 63 58 50 49 54 60 64 60 56
33 34 34 32 26 19 13 9 7 7 8 10 13 12 7 4 6 7 2 13 20 22 24 28 29 28 27 26 22 22 27 31 30 28 24 23 26 27 24 27 34 36 37 37 36 35 36 37 38 38 37 38 39 40 42 45 49 52 55 59 61 64 67 68 67 65 58 52 51 52 57 62 59 55
33 35 36 34 28 18 11 7 5 6 6 8 10 9 5 3 4 4 5 8 15 19 22 25 27 27 29 28 22 19 23 26 26 24 22 22 26 28 24 24 30 35 36 35 34 33 34 35 36 35 34 34 35 36 38 40 44 47 51 56 60 63 65 66 69 68 60 54 53 52 55 61 60 55
34 36 36 36 30 20 14 11 7 6 6 7 10 10 7 4 3 0 3 8 14 18 20 22 23 25 27 27 23 19 21 22 22 21 20 21 25 27 25 23 27 32 34 34 33 32 32 34 34 33 31 31 32 34 35 36 39 42 47 52 57 61 64 65 69 70 62 56 54 54 57 62 62 58
34 36 37 37 32 24 19 16 10 6 6 6 9 11 10 7 3 3 4 8 16 21 20 20 21 22 23 23 20 18 18 19 19 19 19 20 24 27 26 23 25 29 32 33 32 30 30 32 34 33 31 30 30 31 32 34 35 37 41 47 53 58 62 64 68 70 65 58 55 54 58 64 63 57
33 36 38 37 33 28 25 20 13 7 6 6 8 10 11 10 5 3 4 5 14 21 21 19 19 18 18 18 17 15 16 16 16 18 18 19 23 26 25 23 23 27 30 31 31 29 28 29 32 34 33 31 29 29 29 31 32 33 35 41 48 55 59 62 67 70 66 61 58 55 57 62 63 59
32 35 37 37 34 32 30 24 16 10 6 5 6 9 10 11 7 2 3 2 8 16 19 19 18 16 15 16 16 14 14 14 15 17 18 17 20 24 24 21 21 24 27 29 30 29 28 27 28 31 33 33 30 29 28 28 29 30 31 34 41 49 56 60 65 71 69 64 61 58 55 56 59 61
31 33 36 37 36 35 34 28 20 13 8 5 5 7 9 11 9 3 2 2 5 12 15 15 15 15 15 15 15 14 13 14 15 17 17 16 18 22 23 21 18 20 23 25 27 28 27 26 26 27 30 33 33 31 29 28 28 29 29 31 34 41 50 56 60 67 72 70 67 64 60 55 54 59
29 33 35 36 37 36 36 33 26 18 12 9 6 6 7 9 9 5 1 1 2 6 9 9 9 10 13 15 14 14 13 13 14 15 16 16 17 19 22 21 19 19 21 22 24 25 25 25 25 25 27 29 31 32 31 29 28 28 29 29 30 34 41 50 55 60 67 71 72 70 68 62 57 56
29 32 35 37 38 38 37 36 31 25 18 12 8 5 6 7 7 7 4 1 1 1 3 3 3 5 9 12 13 14 14 13 13 14 15 15 15 16 19 20 19 19 20 22 22 22 22 22 22 23 24 25 27 29 31 32 30 29 28 29 29 30 33 41 48 53 59 66 71 73 71 68 63 58
28 32 34 36 38 38 37 36 33 29 23 16 9 6 5 6 7 6 6 4 2 2 1 1 1 0 4 7 10 12 14 14 13 14 15 15 15 14 15 16 17 18 20 22 22 22 22 21 20 20 21 23 24 25 28 30 31 30 29 29 29 29 30 33 40 46 52 58 66 72 73 71 68 62
28 31 33 35 36 36 36 35 33 30 25 20 15 11 8 6 7 7 6 6 6 5 5 5 5 5 4 5 7 10 12 14 13 14 15 16 15 14 13 13 14 15 17 19 21 23 23 22 21 20 20 20 22 22 23 26 28 30 30 30 29 29 30 30 33 38 43 49 55 62 68 71 70 66
27 30 32 33 34 33 33 33 32 29 26 22 19 15 11 7 6 7 7 7 8 8 8 9 9 10 9 8 8 9 12 14 14 14 14 15 16 15 13 12 12 13 14 15 18 20 23 23 23 22 21 21 21 21 20 21 23 25 27 29 30 31 31 31 31 33 36 40 45 51 58 64 68 69
25 28 30 31 30 30 30 30 29 27 26 24 21 17 13 8 6 6 7 8 8 8 9 10 11 12 12 12 11 11 13 15 15 14 14 14 15 15 15 14 14 14 14 14 15 17 19 22 23 23 23 22 21 21 20 19 19 20 22 25 28 30 31 32 33 33 33 36 39 42 48 53 60 65
23 25 26 27 27 27 27 27 27 27 26 25 22 17 12 8 5 5 6 8 8 9 9 9 10 10 11 12 13 14 14 16 17 16 14 13 15 16 16 15 16 16 16 15 15 15 16 18 20 22 23 23 23 22 22 21 20 20 20 21 23 26 29 31 33 34 35 35 36 38 40 44 49 54
24 23 24 25 25 25 26 26 26 25 23 21 20 18 14 10 6 4 6 8 9 9 9 8 8 9 9 10 12 14 15 16 18 18 16 14 15 16 16 16 17 17 17 17 16 16 16 17 18 19 20 22 23 23 23 23 23 23 23 23 23 24 25 27 30 33 35 36 37 37 38 39 42 45
26 24 23 21 20 20 21 21 22 22 21 19 19 19 17 14 10 6 5 6 8 9 9 7 7 7 8 9 11 13 14 15 17 18 18 17 17 16 16 16 17 18 18 18 18 17 16 16 17 17 18 20 22 23 24 24 25 25 25 25 25 26 26 26 27 29 32 35 37 38 38 39 39 41
27 25 22 18 15 15 16 17 18 19 20 20 18 17 16 15 12 9 6 4 4 6 7 7 6 7 7 9 10 11 13 14 15 16 18 18 18 17 16 16 16 16 17 17 18 18 18 17 17 16 17 18 20 21 23 25 26 26 26 27 27 28 29 29 30 30 30 32 34 36 38 39 40 40
27 25 23 19 15 14 14 15 17 18 19 20 19 18 17 15 13 11 8 5 3 2 4 5 5 6 7 8 10 11 12 13 14 15 16 17 18 17 16 16 15 15 15 15 16 17 18 18 18 18 17 17 18 20 22 23 25 26 27 27 27 28 30 31 32 33 32 32 33 34 36 38 39 40
26 25 24 22 19 16 14 15 16 17 18 19 19 19 18 16 14 13 10 8 6 4 3 4 4 4 5 7 9 11 12 13 14 15 16 17 18 18 17 16 16 16 16 15 15 15 16 17 19 19 19 19 19 19 20 21 22 24 26 28 28 28 29 31 32 34 34 35 35 35 36 37 38 39
25 24 24 23 21 19 17 15 15 16 17 18 19 19 19 18 16 15 13 12 11 9 7 5 4 4 3 4 7 10 12 13 14 16 16 17 18 18 18 18 18 17 17 16 16 16 16 16 17 18 20 21 21 20 19 20 21 22 23 25 27 28 28 29 30 32 34 35 36 36 36 37 38 39
24 23 23 23 23 22 20 18 16 15 16 16 17 18 18 18 18 18 17 16 15 12 11 9 7 5 4 3 4 6 9 12 14 16 17 18 19 20 20 20 20 20 20 19 19 18 18 18 18 18 19 21 22 23 22 21 21 21 21 22 24 27 28 29 29 30 31 33 34 35 36 37 38 39
24 23 22 22 22 22 21 20 19 17 16 15 15 16 17 18 18 18 18 17 15 14 13 12 10 8 6 5 5 5 7 9 12 14 16 17 19 20 22 22 23 23 23 23 22 22 21 21 21 21 21 21 22 23 24 24 24 23 22 22 22 24 26 27 28 29 30 30 31 33 34 36 38 39
24 23 23 22 22 22 21 21 21 19 18 16 15 14 14 15 16 16 16 16 15 15 14 13 11 10 9 7 6 6 6 7 9 12 14 16 18 20 21 23 24 25 25 25 25 25 25 24 24 24 24 24 24 23 24 26 25 24 23 24 23 23 24 24 26 28 29 29 30 31 32 34 36 38
26 25 24 23 22 22 21 21 21 21 20 19 17 16 14 14 13 14 14 14 15 15 14 14 13 12 11 10 9 7 7 7 8 9 12 14 16 18 19 21 22 24 26 26 26 26 26 26 26 26 25 26 26 26 26 26 26 26 26 25 25 24 24 23 23 25 27 28 29 30 30 31 32 34
27 26 26 25 24 23 22 21 21 21 20 20 20 19 17 16 14 13 13 13 14 14 14 14 14 13 11 10 10 9 8 8 7 8 9 11 13 16 17 18 19 21 24 25 26 26 26 26 26 26 25 25 26 28 28 28 28 28 29 28 27 26 25 25 24 24 25 26 28 30 30 30 30 31
27 27 26 26 25 24 23 23 22 21 20 20 19 19 19 18 17 16 15 14 14 14 14 14 13 13 12 11 10 10 9 8 8 8 8 8 9 11 14 15 16 17 20 23 24 25 25 26 26 26 25 24 25 26 27 28 29 31 31 31 30 28 27 27 27 27 27 27 27 28 29 30 30 31
26 26 26 26 26 26 25 25 24 23 22 21 20 19 19 18 18 17 16 15 14 13 13 13 13 13 13 12 11 10 9 8 8 8 8 8 8 8 10 12 14 15 16 18 21 23 24 25 26 27 26 25 24 24 24 26 28 31 32 33 33 32 30 29 29 29 29 29 30 29 29 29 29 30
25 25 25 26 26 26 26 25 25 24 24 23 22 21 20 19 18 18 17 16 15 14 13 13 12 12 12 12 12 11 11 10 9 8 8 8 8 8 8 10 13 15 16 17 19 21 23 25 26 27 27 27 25 25 24 24 25 29 31 32 33 34 33 32 32 31 31 31 31 31 31 30 30 30
24 24 25 25 25 25 25 25 25 25 24 23 23 22 22 21 20 20 19 18 17 17 16 15 14 13 12 12 12 12 12 12 11 10 9 8 8 8 8 9 11 15 18 18 18 19 21 24 27 28 28 27 27 27 27 26 25 27 31 32 32 32 33 33 33 33 32 31 31 31 31 31 31 31
Wind_Direction
318 320 320 317 311 305 301 297 290 282 276 274 273 275 277 279 281 278 270 256 242 234 228 220 216 217 219 221 225 226 225 224 227 227 224 220 217 218 220 222 225 226 226 225 223 222 223 224 224 224 221 219 218 215 214 217 217 217 219 220 221 220 218 220 222 222 221 218 219 221 218 214 211 213
322 324 324 321 316 308 300 295 289 283 278 276 274 274 274 275 278 280 277 265 249 238 230 221 214 212 215 219 223 226 225 224 226 227 225 222 219 217 218 220 223 224 225 224 223 221 222 223 223 224 222 219 218 216 214 216 216 216 217 216 216 217 216 217 218 219 221 220 222 224 222 219 216 215
326 327 326 325 320 308 297 290 286 285 282 279 276 273 273 273 274 278 280 271 256 242 232 223 214 210 211 217 223 224 224 224 225 226 226 222 220 218 217 218 221 222 223 223 222 221 221 222 222 223 223 219 218 216 214 214 215 216 217 214 212 214 214 217 218 218 219 219 222 226 226 221 216 215
329 329 328 326 321 307 291 283 282 287 288 283 277 273 271 271 271 274 279 274 262 247 234 225 215 208 209 214 220 222 222 222 223 224 225 223 220 218 217 217 219 221 222 222 222 221 220 221 221 221 222 220 218 217 214 213 215 217 218 216 213 210 208 212 218 220 218 217 218 220 218 215 212 213
330 330 327 325 321 306 285 280 282 289 294 287 278 273 270 269 270 271 275 275 268 252 235 225 214 207 209 212 215 220 221 222 224 224 224 223 221 219 217 217 218 219 220 220 221 221 219 220 220 219 220 220 218 216 214 213 214 216 219 218 214 209 206 208 213 216 216 217 217 213 208 207 208 212
332 329 327 324 320 305 286 283 285 291 294 286 275 270 266 265 268 271 273 276 273 256 234 223 213 204 208 214 215 220 223 223 225 225 225 224 221 219 217 217 218 218 218 218 219 220 219 219 219 218 218 218 218 216 214 214 214 215 218 218 213 209 209 209 211 215 215 215 214 210 206 206 208 212
332 329 327 326 321 307 291 286 288 292 293 283 272 268 265 264 266 269 271 274 276 262 231 214 209 201 205 214 216 220 223 224 228 226 225 225 223 220 218 216 217 218 217 217 217 218 218 217 218 218 218 217 217 216 215 214 214 214 216 218 214 210 211 212 213 214 212 209 208 207 207 207 210 214
333 330 330 329 323 309 295 290 289 293 294 283 271 267 264 264 265 268 268 267 272 267 227 199 198 198 204 214 218 221 224 225 228 228 225 225 224 222 219 217 217 218 217 217 216 216 217 217 217 218 218 217 216 216 215 215 215 214 215 218 217 212 210 212 213 211 208 206 206 208 208 207 211 217
335 333 333 331 325 310 297 292 289 294 299 288 272 265 260 262 264 266 266 260 262 262 221 191 188 194 203 212 216 219 223 225 226 227 225 223 223 222 220 218 217 217 218 217 216 215 215 215 216 216 217 217 216 216 215 215 216 215 215 217 219 215 209 209 210 207 204 204 205 208 210 207 209 217
339 338 336 333 327 313 299 294 292 296 302 295 275 264 259 262 265 264 261 252 246 246 219 195 188 189 197 204 209 213 216 219 221 222 223 222 221 222 221 219 217 217 218 218 216 215 214 214 214 215 216 217 216 216 216 216 216 217 216 216 217 216 210 208 207 204 202 203 204 205 209 208 209 214
344 344 341 336 330 318 303 297 296 297 302 305 293 272 260 260 263 256 247 241 235 228 220 209 200 195 196 197 203 208 209 212 216 218 220 222 221 221 221 220 218 217 217 218 217 214 212 212 213 214 215 216 216 216 216 216 217 218 218 217 217 217 213 208 206 205 204 204 203 204 207 210 211 214
351 351 346 340 335 325 312 303 300 303 310 315 313 295 267 256 256 246 230 231 229 216 216 222 215 203 200 202 209 212 206 206 211 215 219 222 221 221 222 220 218 217 216 217 217 215 212 210 212 214 215 216 216 216 217 217 218 219 220 219 218 218 217 212 207 206 206 204 203 204 206 210 213 215
358 357 352 347 341 333 321 311 307 311 313 313 315 312 295 266 255 245 225 221 223 214 214 225 218 203 202 212 219 219 212 206 210 216 220 222 221 221 221 220 218 216 216 216 217 216 214 211 211 213 215 217 217 216 217 217 218 220 220 221 220 220 221 220 211 205 205 206 205 206 207 209 212 215
3 2 358 353 346 338 327 316 310 311 307 303 309 317 316 300 267 250 233 220 216 213 214 220 216 209 210 213 217 222 223 218 218 221 224 223 221 220 220 219 217 216 215 215 216 217 215 212 211 212 213 216 218 218 217 218 219 220 220 220 222 221 221 219 212 205 205 206 205 205 207 210 213 216
6 7 5 358 350 340 329 314 303 303 302 303 311 319 322 318 310 267 231 219 211 211 215 219 217 212 210 209 212 220 226 226 226 229 230 227 223 220 218 217 216 215 214 214 216 217 216 214 212 210 211 213 216 218 218 219 219 220 219 219 221 220 216 213 209 206 207 209 204 200 204 210 213 216
8 11 10 4 354 341 328 312 296 296 302 311 321 325 321 306 321 327 221 213 214 213 217 222 222 215 207 206 212 219 225 228 231 234 235 229 222 219 216 214 213 214 214 214 215 216 217 216 213 210 209 211 214 216 217 220 220 219 218 218 220 221 218 216 214 211 210 212 205 197 201 208 211 213
11 14 12 8 359 344 329 313 302 307 311 322 329 324 312 286 310 348 114 191 204 212 216 219 224 223 215 214 220 223 224 227 232 235 234 226 220 216 214 212 210 211 213 214 215 215 216 217 215 211 209 209 211 213 215 219 220 219 217 217 219 222 222 222 221 217 213 213 206 196 198 205 207 208
14 16 14 11 6 356 348 343 333 327 324 330 335 328 313 300 311 355 63 143 178 200 213 215 219 223 221 223 230 230 226 228 232 235 232 225 219 215 213 212 209 209 211 212 212 214 215 216 216 214 211 209 209 210 212 217 220 220 218 216 218 221 222 223 222 218 213 211 206 197 195 200 202 204
16 18 16 14 12 9 12 17 8 344 334 335 342 350 355 343 324 36 97 114 143 177 205 214 216 220 223 227 232 234 233 232 233 233 230 223 217 214 215 214 210 208 210 210 211 212 213 214 215 215 214 211 209 208 209 213 218 221 219 217 217 219 221 222 220 215 211 209 204 197 195 198 199 200
17 19 18 16 15 18 23 24 20 357 340 341 348 357 7 3 335 198 160 112 121 145 174 195 204 210 217 221 227 233 237 234 229 225 222 218 214 213 214 214 210 207 208 209 210 210 211 212 212 214 214 212 210 208 208 209 215 220 219 217 216 217 220 221 218 213 210 208 204 198 196 198 198 197
18 20 19 17 18 24 26 26 26 14 343 343 352 353 1 5 351 233 198 112 108 120 133 151 167 178 189 200 209 223 232 232 224 217 213 211 209 210 212 213 210 206 205 207 208 208 209 210 209 211 213 213 211 210 209 208 211 217 220 218 217 216 218 220 218 214 209 208 207 202 195 194 196 195
19 21 19 19 22 26 26 25 29 27 4 347 352 350 353 358 354 291 219 142 113 115 117 123 132 141 161 183 194 203 211 214 213 210 210 207 205 206 209 211 209 204 204 207 208 208 208 207 207 208 210 212 213 212 211 209 208 212 217 219 218 217 217 218 218 215 212 209 210 207 200 196 195 195
20 21 20 21 24 27 25 24 27 31 28 14 356 349 350 354 355 344 236 178 124 121 120 119 121 126 142 166 180 185 188 191 195 200 205 207 205 203 202 202 203 203 204 207 208 208 208 207 206 205 207 210 212 212 212 211 209 209 213 217 218 218 218 218 218 217 215 213 213 212 209 207 202 197
19 22 22 23 26 26 24 23 24 27 33 33 18 357 349 352 360 7 0 199 148 124 119 118 121 126 134 148 161 167 169 172 177 185 194 200 205 206 202 199 198 199 203 207 209 208 208 207 206 205 205 207 210 213 214 214 211 209 211 214 216 218 219 219 219 219 218 216 214 213 214 215 210 202
18 21 22 23 24 24 23 22 22 22 26 31 30 11 354 355 1 11 22 26 197 155 115 104 107 125 139 147 152 157 160 162 165 170 176 180 187 196 201 201 200 200 202 207 209 209 207 205 204 204 204 205 207 211 215 216 215 213 212 213 215 216 218 219 219 219 220 217 213 212 214 215 213 209
18 21 21 22 22 21 19 19 21 20 19 22 30 31 13 5 2 8 16 14 4 12 18 0 348 170 168 164 162 161 162 163 163 163 167 169 169 174 183 189 194 199 203 207 209 210 208 206 203 202 201 202 203 206 210 214 216 216 215 214 214 215 216 217 218 218 219 217 214 213 214 214 212 210
17 19 19 20 20 18 16 16 18 19 18 19 24 28 22 8 356 354 1 5 0 352 336 315 298 285 258 215 193 179 172 172 170 166 166 169 170 171 174 177 181 188 196 202 206 209 211 211 209 205 200 197 198 201 204 209 213 216 217 216 215 215 215 216 216 216 217 217 214 212 211 211 211 211
15 18 17 16 16 15 13 13 14 16 18 20 20 19 15 8 353 343 344 352 352 340 323 308 293 282 274 256 229 207 191 186 183 177 171 169 170 173 178 179 178 180 186 192 197 202 207 211 213 211 207 200 196 196 198 202 207 211 215 217 217 216 216 216 216 215 215 215 214 211 209 210 211 213
14 16 14 11 10 10 11 12 12 14 17 19 18 13 6 359 347 336 332 332 334 329 316 301 286 276 269 258 243 227 210 199 195 192 183 176 172 174 179 182 181 181 182 184 188 193 199 205 207 209 210 208 204 201 199 199 203 207 211 215 218 218 218 218 217 217 215 214 213 211 210 211 212 214
13 14 11 7 5 4 6 9 13 16 17 17 15 13 9 359 344 327 319 313 310 312 310 296 279 269 260 249 241 235 223 209 205 204 197 187 183 183 187 189 189 188 186 184 184 187 190 195 199 202 206 209 209 209 208 206 206 206 208 213 216 217 218 218 218 218 218 216 215 212 210 210 210 213
15 12 8 4 1 360 1 5 10 16 18 17 15 16 17 15 3 324 300 296 294 296 300 293 276 263 251 238 233 236 233 222 214 212 207 202 200 200 202 203 201 199 198 193 189 188 188 190 193 196 201 205 207 209 212 214 213 212 210 210 213 216 218 218 218 219 219 219 218 216 213 210 209 208
15 11 6 359 355 355 358 1 6 12 18 20 19 18 20 22 22 10 333 303 289 286 289 288 274 257 244 232 227 231 235 230 222 217 213 212 213 215 215 213 209 207 206 204 200 197 195 194 194 194 197 200 203 206 209 213 216 217 215 213 212 213 216 220 220 220 220 220 221 221 219 216 213 209
14 9 4 357 351 351 357 1 5 11 19 24 26 25 24 24 25 23 12 338 294 282 284 282 270 254 240 230 224 226 229 227 222 218 215 214 217 219 217 214 211 208 208 208 208 207 206 204 203 201 200 201 202 205 207 208 211 214 216 216 215 212 212 215 219 221 221 221 221 222 222 221 219 216
11 7 4 2 358 353 356 1 6 12 18 24 28 31 31 29 27 23 18 13 359 314 294 286 275 261 245 232 225 223 224 224 220 217 213 211 212 215 214 212 210 208 207 208 209 210 211 210 210 210 209 208 207 207 207 208 208 210 211 213 215 215 213 212 214 217 220 222 222 223 223 223 223 223
8 5 5 7 6 2 358 358 3 11 16 20 25 29 32 33 34 32 29 29 33 24 349 320 304 282 259 242 233 228 226 226 224 221 217 213 212 213 214 215 215 214 213 211 211 212 213 213 213 213 212 213 213 213 212 211 210 210 211 210 211 212 213 214 214 214 215 218 220 222 223 224 224 225
6 4 6 9 10 10 7 1 360 5 11 15 20 24 28 32 35 36 36 37 37 33 19 1 341 319 290 261 246 237 233 232 231 229 227 223 219 219 221 222 224 225 224 222 220 220 219 218 217 216 214 214 214 214 215 217 216 214 213 212 211 210 210 212 214 215 215 215 217 218 221 223 223 224
5 5 7 9 11 13 13 11 6 3 4 8 13 17 20 25 29 32 33 33 33 31 28 22 10 352 332 305 272 251 242 238 238 237 236 233 230 228 228 229 231 233 234 234 232 231 229 226 223 222 220 218 216 214 213 217 219 218 218 217 216 214 212 211 212 213 214 215 216 216 218 220 222 223
7 8 8 9 12 13 15 15 14 10 6 5 7 10 13 17 21 24 26 27 27 28 29 27 22 12 358 336 308 281 259 249 245 243 242 240 239 237 235 234 235 237 238 239 240 239 237 235 231 228 225 224 222 219 217 218 219 219 219 219 219 218 218 216 215 214 213 213 214 214 215 217 219 220
10 11 12 12 13 13 15 16 16 16 14 10 7 6 7 9 12 15 17 19 22 25 25 24 22 20 14 1 339 312 287 269 257 250 246 244 243 242 241 240 239 239 239 240 241 242 241 240 238 234 231 228 226 224 223 222 222 221 220 220 220 219 219 220 219 218 216 215 214 214 214 215 216 217
15 16 16 16 15 14 14 15 16 17 17 15 13 10 7 6 6 6 7 9 14 17 18 18 18 17 14 10 2 346 325 302 281 265 255 249 246 244 243 242 242 241 241 240 240 240 241 240 240 238 235 232 228 226 225 225 224 223 223 222 221 220 220 220 221 221 220 219 217 216 215 215 215 216
19 19 19 20 19 17 16 15 15 16 16 15 15 13 10 8 5 2 1 2 4 7 7 8 10 10 9 7 5 358 349 335 317 299 279 264 254 247 244 242 240 240 240 239 238 238 237 237 236 234 234 234 232 228 226 225 223 222 222 222 221 220 220 221 221 222 221 220 219 218 217 216 216 216
22 22 22 23 23 22 21 19 17 16 15 14 13 12 11 10 8 5 2 359 355 354 354 354 356 358 359 1 0 357 353 346 336 326 312 295 276 258 247 241 238 236 235 235 234 234 232 232 230 225 223 228 232 231 228 225 223 222 221 221 220 218 218 219 221 222 222 221 221 220 218 217 217 217
23 24 24 24 24 24 24 23 21 20 18 15 14 12 10 8 6 4 3 -0 355 350 346 343 342 343 345 348 350 349 347 343 337 332 325 314 301 281 257 242 237 236 233 229 229 229 228 227 224 218 214 217 226 230 230 228 225 222 221 222 222 220 218 217 218 221 222 222 222 222 221 220 220 219
25 25 25 25 24 24 23 23 23 21 20 18 16 14 11 8 5 2 0 359 358 354 349 343 337 333 332 333 334 336 337 335 330 327 321 312 304 296 276 250 238 237 237 233 229 229 228 224 219 214 212 214 220 224 226 228 227 225 223 223 224 224 224 222 220 220 222 222 223 223 223 223 222 222
27 28 28 28 28 27 26 25 24 23 22 20 18 15 13 10 7 4 1 357 356 354 351 347 341 334 328 324 321 320 321 322 320 318 316 309 299 294 287 269 250 241 240 239 235 231 229 225 217 210 210 215 219 220 221 224 225 224 224 225 226 227 228 228 226 224 224 224 226 227 227 228 228 227